OBJECT AY, 62655

Orbit data source: Space-Track

You're viewing an Uncataloged Satellite

Recently launched and/or uncataloged satellites may have evolving metadata. Metadata may include but not limited to: Owner, Maufacturer, Bus, Motor, and Mission.

OBJECT AY, 62655 is a satellite in SSO that was launched on Tue, 14 Jan 2025 UTC via an FALCON 9 launch vehicle from the Air Force Western Test Range (AFWTR). Unknown objects in Earth's orbit typically refer to objects detected orbiting the Earth but have not yet been identified or cataloged. These objects could be anything from previously untracked satellites, spent rocket stages, debris from satellite collisions, or even natural meteoroids temporarily captured by Earth's gravity.

Loading next visibility...
Identifier
62655, 2025-009AY
Orbit
SSO
Country
Flag of TBDTBD
Related business
None
Manufacturer
Unknown
Mission
Operational Commercial Navigation
Bus & Motor
Unknown
Mass
Unknown
Launch date (UTC)
2025-01-14 (1 year ago)
Launch vehicle
FALCON 9
Launch site
Air Force Western Test Range (AFWTR)
Object type
Unknown
Shape & HBR
Box, 0.1 m
Radar Cross Section
0.480 m², Medium (>0.1 m² and < 1m²)

Expand to show TLE details & history
Last TLE update: 6 hours ago

TLE from 6 hours ago
0 OBJECT AY
1 62655U 25009AY  26151.20770090  .00038273  00000-0  94193-3 0  9992
2 62655  97.4043 237.4103 0000630  39.7184 320.4109 15.40509962 76580
Epoch: 2026-05-31T04:59Z
TLE epoch observation values (Epoch: 2026-05-31T04:59:05.357Z)
Latitude
0.00003°
Longitude
-86.07471°
Altitude
447.39 km
Speed
7.644 km/s
True Right ascension
15h 49m 38s
True Declination
0° 00' 00"
Sunlit
Object was in full shadow at epoch
Visualization orbit readout
Latitude
Unknown
Longitude
Unknown
Altitude
Unknown
Speed
Unknown
Apparent Right ascension
Unknown
Apparent Declination
Unknown
Sunlit
N/A
Visualization observer readout
Local Sidereal Time
20:32:58
Azimuth
Unknown
Elevation
Unknown
Doppler factor
Unknown
Orbital elements
Apogee altitude
441.971 km
Perigee altitude
441.112 km
Semi-major axis
6,819.679 km
Eccentricity
0.00006
Inclination
97.4043°
RAAN
237.4103°
Arg. of periapsis
39.7184°
True anomaly
320.4063°
Mean anomaly
320.4109°
Eccentric anomaly
320.4086°
Mean motion
3.85387 °/min
Orbital period
93.41 mins
BSTAR
0.00094193
Loading maneuver chart data...
Computing Atmospheric mass density...
Loading historical data...
Loading historical data...
Loading historical data...
Loading historical data...
Loading historical data...
Loading historical data...
Loading historical data...

Documentation

Showing up to 5 results
|